Alexandria, MN

12:34 AM CDT on May 27, 2017 (GMT -0500)
Chandler

Weather History for KAXN - January, 2014

Change the Weather History Date:

Tuesday, January 28, 2014

  Actual Average Record
Temperature  
Mean Temperature -11 °F -  
Max Temperature -4 °F 18 °F 39 °F (1990)
Min Temperature -18 °F 0 °F -32 °F (1951)
Degree Days  
Heating Degree Days 76    
Moisture  
Dew Point -18 °F    
Average Humidity 71    
Maximum Humidity 81    
Minimum Humidity 62    
Precipitation  
Precipitation 0.00 in - - ()
Sea Level Pressure  
Sea Level Pressure 30.31 in    
Wind  
Wind Speed 12 mph (West)    
Max Wind Speed 17 mph    
Max Gust Speed -    
Visibility 10 miles    
Events      
Averages and records for this station are not official NWS values.
T = Trace of Precipitation, MM = Missing Value Source: NWS Daily Summary

Daily Weather History Graph

Daily Weather History Graph

Search for Another Location

Airport or City:

Trip Planner

Search our weather history database for the weather conditions in past years. The results will help you decide how hot, cold, wet, or windy it might be!

Date:

Astronomy

Jan. 28, 2014 Rise Set
Actual Time 7:48 AM CST 5:21 PM CST
Civil Twilight 7:15 AM CST 5:53 PM CST
Nautical Twilight 6:39 AM CST 6:29 PM CST
Astronomical Twilight 6:04 AM CST 7:04 PM CST
Moon 5:32 AM CST (1/28) 3:10 PM CST (1/28)
Length of Visible Light 10h 37m
Length of Day
9h 33m
Waning Crescent, 7% of the Moon is Illuminated
Jan 28
Waning Crescent
Jan 30
New
Feb 6
First Quarter
Feb 14
Full
Feb 22
Last Quarter

Hourly Weather History & Observations

Time (CST) Temp. Windchill Dew Point Humidity Pressure Visibility Wind Dir Wind Speed Gust Speed Precip Events Conditions
12:53 AM -15.0 °F -35.9 °F -20.9 °F 75% 30.44 in 10.0 mi WNW 11.5 mph - N/A   Clear
1:53 AM -16.1 °F -35.0 °F -20.9 °F 79% 30.42 in 10.0 mi WNW 9.2 mph - N/A   Clear
2:53 AM -17.0 °F -37.3 °F -22.0 °F 78% 30.41 in 10.0 mi WNW 10.4 mph - N/A   Clear
3:53 AM -18.0 °F -38.6 °F -23.1 °F 78% 30.40 in 10.0 mi WNW 10.4 mph - N/A   Clear
4:53 AM -18.9 °F -38.6 °F -23.1 °F 81% 30.41 in 10.0 mi WNW 9.2 mph - N/A   Clear
5:53 AM -18.0 °F -40.7 °F -23.1 °F 78% 30.41 in 10.0 mi WNW 12.7 mph - N/A   Clear
6:53 AM -18.0 °F -38.6 °F -23.1 °F 78% 30.40 in 10.0 mi West 10.4 mph - N/A   Clear
7:53 AM -17.0 °F -38.4 °F -23.1 °F 74% 30.39 in 10.0 mi West 11.5 mph - N/A   Clear
8:53 AM -16.1 °F -38.2 °F -22.0 °F 74% 30.39 in 10.0 mi West 12.7 mph - N/A   Clear
9:53 AM -14.1 °F -38.2 °F -20.0 °F 75% 30.38 in 10.0 mi WNW 16.1 mph - N/A   Clear
10:53 AM -11.9 °F -36.1 °F -20.0 °F 67% 30.38 in 10.0 mi WNW 17.3 mph - N/A   Clear
11:53 AM -9.9 °F -31.3 °F -18.9 °F 65% 30.35 in 10.0 mi West 13.8 mph - N/A   Clear
12:53 PM -9.0 °F -31.7 °F -18.0 °F 65% 30.33 in 10.0 mi WNW 16.1 mph - N/A   Clear
1:53 PM -7.1 °F -29.1 °F -17.0 °F 62% 30.30 in 10.0 mi West 16.1 mph - N/A   Clear
2:53 PM -5.1 °F -26.6 °F -15.0 °F 62% 30.29 in 10.0 mi West 16.1 mph - N/A   Clear
3:53 PM -4.0 °F -24.5 °F -14.1 °F 62% 30.27 in 10.0 mi West 15.0 mph - N/A   Clear
4:53 PM -4.0 °F -24.5 °F -13.0 °F 65% 30.26 in 10.0 mi West 15.0 mph - N/A   Clear
5:53 PM -4.0 °F -20.2 °F -13.0 °F 65% 30.25 in 10.0 mi West 9.2 mph - N/A   Clear
6:53 PM -6.0 °F -21.5 °F -14.1 °F 68% 30.24 in 10.0 mi West 8.1 mph - N/A   Clear
7:53 PM -5.1 °F -23.5 °F -13.0 °F 69% 30.21 in 10.0 mi West 11.5 mph - N/A   Clear
8:53 PM -5.1 °F -21.5 °F -13.0 °F 69% 30.19 in 10.0 mi West 9.2 mph - N/A   Clear
9:53 PM -5.1 °F -22.5 °F -13.0 °F 69% 30.16 in 10.0 mi West 10.4 mph - N/A   Clear
10:53 PM -4.0 °F -23.7 °F -11.9 °F 69% 30.14 in 10.0 mi West 13.8 mph - N/A   Clear
11:53 PM -6.0 °F -24.6 °F -13.0 °F 72% 30.13 in 10.0 mi WSW 11.5 mph - N/A   Clear